Weather reports worldwide

Advertisment
Görlitz, Germany (10499): temperature & dewpoint: 11.09.2019 23:00:00 - 17.09.2019 23:00:00 (CEST)Görlitz, Germany (10499): temperature 5cm & temperature -5cm: 11.09.2019 23:00:00 - 17.09.2019 23:00:00 (CEST)Görlitz, Germany (10499): temperature -20cm & temperature -100cm: 11.09.2019 23:00:00 - 17.09.2019 23:00:00 (CEST)Görlitz, Germany (10499): wind speed & gusts: 11.09.2019 23:00:00 - 17.09.2019 23:00:00 (CEST)Görlitz, Germany (10499): wind direction: 11.09.2019 23:00:00 - 17.09.2019 23:00:00 (CEST)Görlitz, Germany (10499): reduced air pressure: 11.09.2019 23:00:00 - 17.09.2019 23:00:00 (CEST)Görlitz, Germany (10499): visibility: 11.09.2019 23:00:00 - 17.09.2019 23:00:00 (CEST)Görlitz, Germany (10499): sunshine duration: 11.09.2019 23:00:00 - 17.09.2019 23:00:00 (CEST)Görlitz, Germany (10499): precipitation: 11.09.2019 23:00:00 - 17.09.2019 23:00:00 (CEST)
Date & Time tt [°C] td [°C] tt 5cm [°C] tt -5cm [°C] tt -20cm [°C] tt -100cm [°C] ff [km/h] ff [kn] fx [km/h] fx [kn] dd ppp [hPa] vv [km] sd [min] rr [mm]
17.09.2019 23:00:00 9,1 4,6 8,2 12,5 15,4 17,3 20 11 39 21 WNW 1016,4 54 0 0,0
17.09.2019 22:00:00 10,0 5,4 9,1 13,2 15,6 17,3 22 12 37 20 W 1015,6 59 0 0,0
17.09.2019 21:00:00 10,3 8,0 9,5 13,8 15,7 17,4 18 10 37 20 W 1015,0 48 0 0,0
17.09.2019 20:00:00 11,2 8,2 10,9 14,2 15,9 17,4 19 10 45 24 W 1014,5 52 0 0,0
17.09.2019 19:00:00 11,7 8,2 10,6 14,8 16,0 17,4 27 14 48 26 W 1013,5 57 0 0,5
17.09.2019 18:00:00 13,0 7,3 12,7 15,5 16,0 17,4 17 9 57 31 WNW 1013,3 48 1 0,0
17.09.2019 17:00:00 14,6 5,8 14,8 16,0 15,9 17,4 29 16 50 27 W 1012,8 68 4 0,0
17.09.2019 16:00:00 14,9 5,5 15,8 16,1 15,8 17,4 27 14 49 26 W 1012,9 55 21 0,0
17.09.2019 15:00:00 15,8 6,5 18,1 15,9 15,7 17,4 24 13 46 25 W 1013,4 75 32 0,0
17.09.2019 14:00:00 14,0 4,9 14,7 15,7 15,5 17,4 31 17 48 26 W 1014,2 61 8 0,0
17.09.2019 13:00:00 13,9 7,1 15,0 15,5 15,4 17,4 24 13 37 20 W 1014,8 46 20 0,0
17.09.2019 12:00:00 13,0 7,0 13,7 15,1 15,3 17,4 22 12 38 20 W 1015,5 34 29 0,0
17.09.2019 11:00:00 12,4 8,2 13,0 14,6 15,2 17,4 17 9 43 23 W 1016,3 27 18 0,0
17.09.2019 10:00:00 12,3 9,0 13,3 13,9 15,2 17,4 20 11 31 17 W 1016,4 19 46 0,0
17.09.2019 09:00:00 11,5 8,8 12,2 13,2 15,3 17,4 18 10 27 15 W 1016,6 18 49 0,0
17.09.2019 08:00:00 10,7 9,3 10,7 13,1 15,4 17,4 11 6 21 11 W 1016,8 10 16 0,0
17.09.2019 07:00:00 10,7 9,4 10,5 13,1 15,6 17,4 11 6 23 12 W 1016,9 12 0 0,0
17.09.2019 06:00:00 10,4 9,3 9,4 13,4 15,7 17,4 9 5 19 11 W 1016,5 12 0 0,0
17.09.2019 05:00:00 10,4 9,5 9,8 13,7 15,9 17,4 9 5 19 11 W 1017,1 9 0 0,0
17.09.2019 04:00:00 10,9 9,7 10,6 14,0 16,0 17,4 11 6 19 11 WNW 1017,1 11 0 0,0
17.09.2019 03:00:00 10,9 10,0 10,8 14,1 16,2 17,4 8 5 20 11 WNW 1017,2 12 0 0,0
17.09.2019 02:00:00 10,6 9,5 10,5 14,2 16,3 17,5 10 5 21 11 WNW 1017,6 16 0 0,0
17.09.2019 01:00:00 10,6 9,7 10,4 14,5 16,5 17,5 9 5 16 9 WNW 1017,6 21 0 0,0
17.09.2019 00:00:00 10,8 9,9 10,5 14,8 16,7 17,5 9 5 16 9 WNW 1017,9 25 0 0,0
16.09.2019 23:00:00 11,3 10,5 11,2 15,2 16,8 17,5 8 5 16 9 WNW 1017,6 17 0 0,0
16.09.2019 22:00:00 11,6 11,0 11,7 15,5 17,0 17,5 6 3 12 6 W 1017,8 26 0 0,1
16.09.2019 21:00:00 11,4 10,9 11,7 15,7 17,2 17,5 4 2 10 6 WNW 1017,6 4,3 0 0,6
16.09.2019 20:00:00 11,3 10,7 11,6 16,1 17,3 17,5 7 4 14 8 NNW 1017,8 2,4 0 1,0
16.09.2019 19:00:00 11,6 10,8 11,9 16,6 17,4 17,5 9 5 15 8 NNW 1017,5 4,5 0 0,7
16.09.2019 18:00:00 12,2 10,9 12,2 17,2 17,5 17,5 11 6 16 8 NNW 1017,5 11 0 0,8
16.09.2019 17:00:00 13,9 10,8 13,9 17,6 17,4 17,5 4 2 16 8 WNW 1017,3 21 0 0,0
16.09.2019 16:00:00 14,0 10,5 14,6 18,0 17,4 17,5 8 4 18 10 WNW 1017,7 32 0 0,0
16.09.2019 15:00:00 14,8 10,4 16,8 18,0 17,3 17,5 10 5 20 11 W 1017,9 29 0 0,0
16.09.2019 14:00:00 15,0 8,9 15,7 18,2 17,1 17,5 13 7 21 11 W 1018,2 37 0 0,0
16.09.2019 13:00:00 15,3 8,6 16,3 18,3 16,8 17,5 10 5 19 10 W 1018,7 34 11 0,0
16.09.2019 12:00:00 15,7 8,8 18,6 17,4 16,7 17,5 10 5 22 12 W 1019,1 25 15 0,0
16.09.2019 11:00:00 14,7 8,8 16,2 16,6 16,6 17,5 14 8 23 12 W 1019,9 21 12 0,0
16.09.2019 10:00:00 14,2 9,5 15,4 15,9 16,6 17,5 9 5 19 11 NW 1020,0 36 0 0,0
16.09.2019 09:00:00 13,9 9,5 14,6 15,5 16,7 17,5 11 6 18 10 W 1019,8 34 0 0,0
16.09.2019 08:00:00 13,6 9,6 13,6 15,5 16,8 17,5 7 4 12 7 W 1019,7 42 0 0,0
16.09.2019 07:00:00 13,8 10,0 13,7 15,6 16,8 17,5 8 4 18 10 WNW 1019,5 68 0 0,0
16.09.2019 06:00:00 14,4 9,2 14,3 15,6 16,9 17,5 7 4 17 9 W 1018,8 66 0 0,0
16.09.2019 05:00:00 15,1 9,3 14,8 15,6 17,1 17,5 10 5 19 10 WNW 1019,0 60 0 0,0
16.09.2019 04:00:00 15,2 7,1 14,8 15,5 17,3 17,5 9 5 15 8 WSW 1019,1 71 0 0,0
16.09.2019 03:00:00 15,6 6,0 14,2 15,6 17,5 17,5 7 4 14 8 WNW 1019,1 62 0 0,0
16.09.2019 02:00:00 15,4 6,2 13,8 15,8 17,7 17,5 9 5 17 9 WSW 1018,6 66 0 0,0
16.09.2019 01:00:00 14,8 6,4 12,3 16,2 18,0 17,5 9 5 16 9 WSW 1018,9 66 0 0,0
16.09.2019 00:00:00 15,7 7,2 12,1 16,7 18,2 17,5 6 4 14 8 WSW 1018,7 75 0 0,0
15.09.2019 23:00:00 16,0 7,8 12,5 17,3 18,5 17,5 9 5 16 8 SW 1018,7 75 0 0,0
15.09.2019 22:00:00 15,7 8,7 11,8 18,1 18,7 17,5 10 5 14 7 SW 1018,6 66 0 0,0
15.09.2019 21:00:00 16,8 9,6 14,5 18,9 18,8 17,5 11 6 14 7 SW 1018,5 66 0 0,0
15.09.2019 20:00:00 17,9 9,0 15,0 19,8 18,8 17,5 8 4 12 7 SW 1018,3 75 6 0,0
15.09.2019 19:00:00 20,5 7,1 18,7 20,8 18,7 17,5 10 5 21 11 WSW 1017,9 67 0 0,0
15.09.2019 18:00:00 22,5 8,0 21,8 21,6 18,4 17,6 16 8 34 19 W 1018,1 65 48 0,0
15.09.2019 17:00:00 23,5 7,7 24,3 21,8 18,0 17,6 18 10 37 20 W 1018,4 66 58 0,0
15.09.2019 16:00:00 23,8 8,2 25,1 21,7 17,5 17,6 23 12 34 19 W 1018,9 62 52 0,0
15.09.2019 15:00:00 22,6 11,7 24,2 21,5 17,0 17,6 20 11 36 20 SW 1019,4 60 47 0,0
15.09.2019 14:00:00 22,5 11,7 25,1 20,5 16,4 17,6 22 12 41 22 SW 1020,4 47 60 0,0
15.09.2019 13:00:00 21,9 11,6 24,8 19,0 15,8 17,6 23 12 41 22 WSW 1021,1 65 60 0,0
15.09.2019 12:00:00 20,6 10,7 23,8 17,2 15,5 17,6 23 12 35 19 SSW 1021,9 56 60 0,0
15.09.2019 11:00:00 18,6 9,9 20,7 15,5 15,2 17,6 25 14 36 19 SSW 1022,6 39 60 0,0
15.09.2019 10:00:00 16,7 9,0 18,7 14,0 15,2 17,6 24 13 40 21 SSW 1023,5 55 60 0,0
15.09.2019 09:00:00 14,4 7,3 15,4 13,0 15,3 17,6 24 13 34 19 SW 1024,0 45 60 0,0
15.09.2019 08:00:00 12,9 6,2 12,9 12,5 15,4 17,6 18 10 29 16 SW 1024,7 61 52 0,0
15.09.2019 07:00:00 11,8 5,8 10,5 12,5 15,7 17,6 17 9 26 14 SW 1025,1 56 0 0,0
15.09.2019 06:00:00 11,8 6,0 10,1 12,6 15,9 17,6 16 9 26 14 SW 1025,7 58 0 0,0
15.09.2019 05:00:00 9,7 5,5 6,4 12,9 16,2 17,6 6 4 13 7 SSW 1026,7 50 0 0,0
15.09.2019 04:00:00 8,5 5,4 6,2 13,2 16,5 17,6 11 6 18 10 S 1027,5 54 0 0,0
15.09.2019 03:00:00 7,6 6,5 6,1 13,7 16,8 17,6 5 3 11 6 SSE 1028,4 25 0 0,0
15.09.2019 02:00:00 7,9 7,4 6,5 14,2 17,2 17,6 6 3 8 4 SSE 1028,9 11 0 0,0
15.09.2019 01:00:00 8,9 8,1 7,2 14,7 17,5 17,6 4 2 7 4 SSE 1029,5 14 0 0,0
15.09.2019 00:00:00 8,3 6,9 6,8 15,4 17,8 17,6 4 2 12 6 SSE 1030,2 12 0 0,0
14.09.2019 23:00:00 9,7 7,3 7,0 16,1 18,1 17,6 0 0 4 2 N 1030,7 21 0 0,0
14.09.2019 22:00:00 11,5 7,4 8,8 16,9 18,4 17,6 3 2 6 3 W 1030,9 32 0 0,0
14.09.2019 21:00:00 10,6 7,3 8,8 17,9 18,6 17,6 3 2 6 4 SW 1031,2 39 0 0,0
14.09.2019 20:00:00 14,5 6,2 10,0 19,1 18,7 17,6 4 2 5 3 ESE 1030,4 52 0 0,0
14.09.2019 19:00:00 15,9 6,1 13,6 20,4 18,7 17,6 4 2 14 7 ENE 1030,6 52 50 0,0
14.09.2019 18:00:00 17,6 5,0 19,7 21,3 18,4 17,6 5 3 14 8 N 1030,7 61 60 0,0
14.09.2019 17:00:00 18,8 5,7 21,2 21,7 18,0 17,6 3 2 15 8 WNW 1031,0 52 60 0,0
14.09.2019 16:00:00 18,4 5,2 21,5 21,4 17,6 17,7 4 2 14 8 NNE 1031,9 52 58 0,0
14.09.2019 15:00:00 17,4 5,2 20,6 21,0 17,0 17,7 6 3 22 12 WNW 1032,6 62 50 0,0
14.09.2019 14:00:00 17,6 5,0 22,0 19,8 16,6 17,7 6 4 19 10 E 1033,3 56 56 0,0
14.09.2019 13:00:00 16,2 5,5 22,6 18,3 16,2 17,7 7 4 19 10 NW 1034,1 55 44 0,0
14.09.2019 12:00:00 16,0 6,5 21,0 17,2 15,8 17,7 7 4 16 9 N 1034,3 36 60 0,0
14.09.2019 11:00:00 15,3 6,9 17,8 15,8 15,6 17,7 5 3 11 6 NNW 1034,4 44 60 0,0
14.09.2019 10:00:00 13,4 7,0 16,5 14,3 15,6 17,7 3 2 8 5 NNE 1034,6 63 60 0,0
14.09.2019 09:00:00 12,1 6,2 14,8 13,2 15,7 17,7 4 2 7 4 NNW 1034,9 46 60 0,0
14.09.2019 08:00:00 9,5 6,3 9,2 12,9 16,0 17,7 3 2 6 3 W 1035,0 42 52 0,0
14.09.2019 07:00:00 7,5 6,4 6,0 13,2 16,3 17,7 4 2 10 5 WNW 1034,7 33 0 0,0
14.09.2019 06:00:00 8,8 7,8 6,7 13,7 16,5 17,7 5 3 7 4 W 1034,1 50 0 0,0
14.09.2019 05:00:00 9,2 8,1 7,5 14,2 16,8 17,7 4 2 6 3 NW 1033,9 50 0 0,0
14.09.2019 04:00:00 10,6 8,6 8,8 14,7 17,0 17,7 4 2 7 4 W 1033,9 59 0 0,0
14.09.2019 03:00:00 11,1 8,0 8,1 15,1 17,3 17,7 4 2 5 3 N 1033,8 72 0 0,0
14.09.2019 02:00:00 11,6 8,3 8,6 15,8 17,5 17,7 0 0 14 8 N 1033,7 57 0 0,0
14.09.2019 01:00:00 13,3 8,4 12,8 16,2 17,6 17,7 11 6 21 11 NNE 1033,6 71 0 0,0
14.09.2019 00:00:00 13,7 10,6 12,9 16,7 17,8 17,7 10 5 19 11 NNE 1032,9 73 0 0,0
13.09.2019 23:00:00 15,4 11,5 15,1 17,2 17,9 17,7 14 7 20 11 N 1032,0 73 0 0,0
13.09.2019 22:00:00 16,0 12,5 15,5 17,5 18,1 17,7 4 2 11 6 NW 1031,5 75 0 0,0
13.09.2019 21:00:00 15,6 13,0 15,0 17,8 18,2 17,7 4 2 6 4 WNW 1031,3 75 0 0,0
13.09.2019 20:00:00 15,8 12,7 15,4 18,4 18,2 17,7 5 3 24 13 N 1030,4 75 0 0,0
13.09.2019 19:00:00 16,3 12,2 14,9 19,3 18,2 17,7 16 9 41 22 NNW 1029,7 75 1 0,3
13.09.2019 18:00:00 20,6 14,1 20,8 19,8 18,0 17,7 12 6 29 15 W 1028,4 74 48 0,0
13.09.2019 17:00:00 20,7 14,0 21,4 19,7 17,9 17,7 16 9 29 16 W 1028,4 67 27 0,0
13.09.2019 16:00:00 20,8 14,4 22,1 19,5 17,6 17,8 16 9 31 17 W 1028,7 75 5 0,0
13.09.2019 15:00:00 20,6 13,5 21,1 20,0 17,3 17,8 15 8 36 20 W 1028,4 75 7 0,0
13.09.2019 14:00:00 20,5 13,3 21,4 19,8 16,9 17,8 19 11 37 20 W 1028,3 62 22 0,0
13.09.2019 13:00:00 21,5 13,1 25,0 18,9 16,5 17,8 20 11 38 20 W 1028,0 65 48 0,0
13.09.2019 12:00:00 21,1 13,0 24,0 17,7 16,3 17,8 20 11 33 18 W 1028,2 49 34 0,0
13.09.2019 11:00:00 20,3 12,2 21,6 16,7 16,1 17,8 17 9 29 16 W 1028,4 59 31 0,0
13.09.2019 10:00:00 18,6 13,6 19,3 15,8 16,0 17,8 16 9 23 12 WSW 1028,5 75 20 0,0
13.09.2019 09:00:00 17,4 13,5 18,3 15,1 15,9 17,8 14 8 24 13 WSW 1028,4 47 17 0,0
13.09.2019 08:00:00 16,7 13,4 17,5 14,6 16,0 17,8 11 6 17 9 SW 1028,3 63 44 0,0
13.09.2019 07:00:00 14,7 12,2 13,3 14,6 16,1 17,8 11 6 16 9 SW 1028,4 57 0 0,0
13.09.2019 06:00:00 15,3 12,6 14,6 14,5 16,2 17,8 10 5 15 8 SW 1028,2 62 0 0,0
13.09.2019 05:00:00 14,7 12,1 14,0 14,3 16,3 17,8 10 5 14 8 SW 1028,2 60 0 0,0
13.09.2019 04:00:00 14,3 11,9 12,3 14,5 16,5 17,8 11 6 13 7 SW 1028,4 65 0 0,0
13.09.2019 03:00:00 14,2 11,8 12,0 14,7 16,7 17,8 9 5 16 8 SW 1028,5 52 0 0,0
13.09.2019 02:00:00 14,4 12,1 12,3 14,9 16,8 17,8 11 6 16 9 SW 1028,8 44 0 0,0
13.09.2019 01:00:00 13,9 12,5 11,2 15,2 17,0 17,8 3 2 8 4 S 1028,9 24 0 0,0
13.09.2019 00:00:00 14,0 12,5 11,0 15,6 17,2 17,9 4 2 8 4 SW 1029,1 31 0 0,0
12.09.2019 23:00:00 14,3 12,7 12,0 16,1 17,4 17,9 7 4 10 5 S 1029,0 38 0 0,0
12.09.2019 22:00:00 14,8 12,6 12,7 16,6 17,5 17,9 6 3 9 5 SW 1029,1 47 0 0,0
12.09.2019 21:00:00 15,9 12,9 13,4 17,3 17,6 17,9 6 4 10 5 SW 1029,0 64 0 0,0
12.09.2019 20:00:00 17,0 13,7 14,6 18,0 17,6 17,9 5 3 8 4 SW 1028,5 75 0 0,0
12.09.2019 19:00:00 18,4 13,2 17,2 18,4 17,5 17,9 6 3 13 7 WSW 1028,1 41 18 0,0
12.09.2019 18:00:00 19,7 12,8 19,7 18,7 17,3 17,9 10 5 17 9 W 1028,0 65 2 0,0
12.09.2019 17:00:00 19,5 12,8 19,4 19,0 17,1 17,9 9 5 22 12 W 1028,2 71 4 0,0
12.09.2019 16:00:00 19,8 12,7 20,5 18,8 16,8 17,9 13 7 25 14 WSW 1028,2 74 18 0,0
12.09.2019 15:00:00 19,3 13,2 21,1 18,2 16,5 17,9 16 9 23 13 SW 1028,4 75 22 0,0
12.09.2019 14:00:00 18,1 12,9 19,5 17,5 16,3 17,9 15 8 22 12 SW 1028,9 66 0 0,0
12.09.2019 13:00:00 18,1 12,5 19,6 17,1 16,0 18,0 13 7 24 13 WSW 1028,9 64 6 0,0
12.09.2019 12:00:00 17,4 11,8 19,3 16,2 15,8 18,0 15 8 26 14 WSW 1028,7 32 8 0,0
12.09.2019 11:00:00 16,5 11,6 17,7 15,3 15,7 18,0 14 8 26 14 WSW 1028,4 46 2 0,0
12.09.2019 10:00:00 15,6 10,5 16,2 14,6 15,6 18,0 13 7 20 11 WSW 1028,2 49 0 0,0
12.09.2019 09:00:00 15,1 9,4 15,1 14,1 15,7 18,0 11 6 18 10 WSW 1027,6 70 11 0,0
12.09.2019 08:00:00 13,6 9,2 13,4 13,4 15,8 18,0 10 5 14 8 SW 1027,1 45 44 0,0
12.09.2019 07:00:00 12,0 8,0 9,9 13,2 16,0 18,0 7 4 14 8 SSW 1026,5 56 0 0,0
12.09.2019 06:00:00 11,4 7,5 8,9 13,5 16,3 18,0 9 5 15 8 SW 1026,2 51 0 0,0
12.09.2019 05:00:00 12,4 7,9 10,0 13,8 16,5 18,0 11 6 15 8 SW 1025,7 49 0 0,0
12.09.2019 04:00:00 12,4 7,8 8,8 14,2 16,7 18,0 8 5 12 6 SSW 1025,5 54 0 0,0
12.09.2019 03:00:00 12,8 8,1 9,5 14,6 17,0 18,0 9 5 12 7 SW 1025,1 56 0 0,0
12.09.2019 02:00:00 13,1 9,8 9,7 15,1 17,2 18,0 7 4 9 5 SW 1024,8 52 0 0,0
12.09.2019 01:00:00 13,6 10,2 10,8 15,5 17,4 18,0 7 4 10 5 SW 1024,7 49 0 0,0
12.09.2019 00:00:00 14,0 10,7 11,5 15,9 17,7 18,1 9 5 10 5 SW 1024,6 46 0 0,0
11.09.2019 23:00:00 13,9 10,6 11,5 16,4 17,9 18,1 7 4 18 10 SSW 1024,3 53 0 0,0

tt = temperature
td = dewpoint
tt 5cm = temperature 5cm
tt -5cm = temperature -5cm
tt -20cm = temperature -20cm
tt -100cm = temperature -100cm
ff = wind speed
fx = gusts
dd = wind direction
ppp = reduced air pressure
vv = visibility
sd = sunshine duration
rr = precipitation

Next stations